Weather in Kranj

Slovenia     46°14′07″N   14°20′54″E
temp.,
°C
wind,
m/s
gust,
m/s
humid.,
%
clouds,
%
prec.,
mm/h
press.,
hPa
HPBL,
m
12 may, wed
wed1223:00+11nw119391 0.1 100919
02:00+11ese1297100 2.8 100759
05:00+10ssw1198100 6.1 100636
08:00+10s0196100 9.5 100762
11:00+12s128889 2.4 1007404
14:00+9nnw3593100 5.8 1009415
17:00+10nnw238597 0.3 1008297
20:00+10nw118889 0.3 100750
13 may, thu
thu1323:00+8nnw2291100 0.4 100855
02:00+8nnw2297100 3.3 100772
05:00+8n1197100 1.9 100660
08:00+9nw129293 3.4 1006224
11:00+12ssw227379 0.4 1005974
14:00+13s227593 1.8 10041016
17:00+12ssw238499 2.1 1004687
20:00+10ssw119493 3.4 100527
14 may, fri
fri1423:00+9sw1198100 1.2 100733
02:00+8sw0199100 3.8 100759
05:00+8sw1197100 1.4 100733
08:00+9s119296 1.8 1009138
11:00+12s237546 0.6 1008983
14:00+12s338284 3.1 1008992
17:00+12ssw228394 2.3 1008748
20:00+9wsw119449 4.3 100912
15 may, sat
sat1523:00+6nw119661 0.4 101013
02:00+7nw0195100 0.6 101013
05:00+7ese1198100 1.8 101053
08:00+7nnw2297100 4.2 1010123
11:00+8nw2396100 3.4 1011212
14:00+8nnw2395100 5.0 1010195
17:00+9nnw2288100 0.1 1010329
20:00+8nnw228983 0.1 101074
16 may, sun
sun1623:00+7nnw228888 0.0 101149
02:00+5nnw22925 0.0 101124
05:00+4nnw22945 0.0 101229
08:00+9n11725 0.0 1011296
11:00+14s215790 0.1 10101441
14:00+16wsw116160 0.8 10081348
17:00+15wsw126385 1.2 10081025
20:00+11w11876 1.7 100922